Printer-friendly version

IAU Minor Planet Center

Minor Planet Center

MPEC 2006-X33 : 2006 XY

The following Minor Planet Electronic Circular may be linked-to from your own Web pages, but must not otherwise be redistributed electronically.


Read MPEC 2006-X32 Read MPEC 2006-X34


M.P.E.C. 2006-X33                                Issued 2006 Dec. 11, 16:48 UT

     The Minor Planet Electronic Circulars contain information on unusual
         minor planets and routine data on comets.  They are published
   on behalf of Commission 20 of the International Astronomical Union by the
          Minor Planet Center, Smithsonian Astrophysical Observatory,
                          Cambridge, MA 02138, U.S.A.

             Prepared using the Tamkin Foundation Computer Network

                              MPC@CFA.HARVARD.EDU
          URL http://cfa-www.harvard.edu/iau/mpc.html  ISSN 1523-6714

                                    2006 XY

Observations:
     K06X00Y* C2006 12 11.20016 00 13 02.17 +03 36 37.1          18.6 V EX033703
     K06X00Y  C2006 12 11.20681 00 13 06.52 +03 35 50.1          17.9 V EX033703
     K06X00Y  C2006 12 11.21341 00 13 10.88 +03 35 03.4          17.9 V EX033703
     K06X00Y  C2006 12 11.24446 00 13 31.72 +03 31 23.1          17.8 V EX033703
     K06X00Y  C2006 12 11.24499 00 13 32.08 +03 31 19.0          18.2 V EX033703
     K06X00Y  C2006 12 11.24604 00 13 32.77 +03 31 12.0          18.1 V EX033703
     K06X00Y  C2006 12 11.59971 00 18 12.16 +02 49 07.6          18.7 V EX033D35
     K06X00Y  C2006 12 11.60082 00 18 12.96 +02 48 59.5          20.4 V EX033D35
     K06X00Y  C2006 12 11.60186 00 18 13.49 +02 48 53.1          19.6 V EX033D35

Observer details:
703 Catalina Sky Survey.  Observer E. J. Christensen.  Measurers E. C. Beshore,
    E. J. Christensen, G. J. Garradd, A. R. Gibbs, A. D. Grauer, R. E. Hill,
    R. A. Kowalski, S. M. Larson, R. H. McNaught.  0.68-m Schmidt + CCD.
D35 Lulin Observatory.  Observers H.-C. Lin, C.-S. Lin, M.-T. Chang, Q.-z. Ye.
    Measurer Q.-z. Ye.  0.41-m f/8.8 Ritchey-Chretien + 2Kx2K CCD + f/6.25
    focal reducer.

Orbital elements:
2006 XY                                                  Earth MOID = 0.0054 AU
Epoch 2006 Sept. 22.0 TT = JDT 2454000.5                MPC
M 314.10009              (2000.0)            P               Q
n   0.54830741     Peri.  183.27497     +0.14515021     -0.98738179
a   1.4783819      Node   258.38583     +0.90922809     +0.15834886
e   0.3300030      Incl.    3.70601     +0.39017393     -0.00168272
P   1.80           H   24.3           G   0.15           U   8
Residuals in seconds of arc
061211 703  0.2-  0.1+    061211 703  0.1+  0.1+    061211 D35  0.1+  0.2-
061211 703  0.0   0.0     061211 703  0.1+  0.3-    061211 D35  0.1-  0.2+
061211 703  0.3+  0.1-    061211 703  0.3-  0.2+    061211 D35 (3.5-  1.8+)

Ephemeris:
2006 XY                  a,e,i = 1.48, 0.33, 4                   q = 0.9905
Date    TT    R. A. (2000) Decl.     Delta      r     Elong.  Phase     V
2006 12 11    00 10.77   +04 02.5    0.0234   0.991   105.4    73.3    18.7
2006 12 16    02 02.00   -12 18.7    0.0137   0.991   117.3    62.0    17.2
2006 12 21    06 07.33   -30 28.0    0.0145   0.992   126.0    53.3    17.0
2006 12 26    08 16.00   -27 46.2    0.0249   0.997   121.4    57.4    18.3
2006 12 31    09 00.20   -24 33.0    0.0376   1.003   121.4    56.8    19.2
2007 01 05    09 19.84   -22 22.4    0.0508   1.012   123.7    53.9    19.8
2007 01 10    09 29.76   -20 41.4    0.0642   1.024   127.3    49.9    20.2
2007 01 15    09 34.73   -19 10.7    0.0778   1.037   131.5    45.3    20.6
2007 01 20    09 36.82   -17 40.6    0.0917   1.052   136.0    40.5    20.8
2007 01 25    09 37.19   -16 07.1    0.106    1.069   140.8    35.6    21.0
2007 01 30    09 36.62   -14 29.6    0.121    1.087   145.5    30.9    21.2
2007 02 04    09 35.56   -12 49.1    0.137    1.107   150.0    26.4    21.4
2007 02 09    09 34.37   -11 06.5    0.155    1.128   154.0    22.6    21.6
2007 02 14    09 33.31   -09 23.5    0.174    1.150   157.0    19.6    21.8
2007 02 19    09 32.67   -07 42.4    0.195    1.172   158.9    17.7    22.0

Timothy B. Spahr             (C) Copyright 2006 MPC           M.P.E.C. 2006-X33

Read MPEC 2006-X32 Read MPEC 2006-X34


Our Web policy. Index to the CBAT/MPC/ICQ pages.


Valid HTML 4.01!